When you browse on this site, cookies collect data to enhance your experience and personalize the content and advertising you see.
Visit our Privacy Policy to learn more. By continuing to use the site, you agree to this use of cookies and data.
  • în România
  • Lista ţărilor
  • Pe 7 zile
  • Temperatura apei
  • Hartă satelitară
  • Meteo pe hartă
  • Widget-uri
  • user-avatar
    Intrare

    Meteo pe oră la Lezhe

    Astăzi, 19 Iunie, Miercuri

    Timp Temperatura Precipitaţii Vânt Presiune Umiditate
    00:00 +21°C° 0 mm 1 m/s 736 mmHg 79%
    01:00 +21°C° 0 mm 1 m/s 736 mmHg 79%
    02:00 +20°C° 0 mm 1 m/s 736 mmHg 79%
    03:00 +20°C° 0 mm 1 m/s 736 mmHg 79%
    04:00 +20°C° 0 mm 1 m/s 736 mmHg 79%
    05:00 +22°C° 0 mm 1 m/s 736 mmHg 74%
    06:00 +23°C° 0 mm 1 m/s 736 mmHg 70%
    07:00 +23°C° 0 mm 0 m/s 736 mmHg 65%
    08:00 +27°C° 0 mm 1 m/s 736 mmHg 60%
    09:00 +28°C° 0 mm 1 m/s 736 mmHg 56%
    10:00 +30°C° 0 mm 1 m/s 736 mmHg 51%
    11:00 +29°C° 0.2 mm 2 m/s 736 mmHg 52%
    12:00 +29°C° 0.2 mm 2 m/s 736 mmHg 53%
    13:00 +29°C° 0.2 mm 3 m/s 735 mmHg 54%
    14:00 +29°C° 0.2 mm 3 m/s 735 mmHg 55%
    15:00 +28°C° 0.2 mm 2 m/s 735 mmHg 56%
    16:00 +28°C° 0.2 mm 2 m/s 735 mmHg 57%
    17:00 +26°C° 0 mm 1 m/s 735 mmHg 64%
    18:00 +25°C° 0 mm 1 m/s 735 mmHg 71%
    19:00 +23°C° 0 mm 1 m/s 735 mmHg 78%
    20:00 +22°C° 0 mm 1 m/s 735 mmHg 80%
    21:00 +22°C° 0 mm 1 m/s 735 mmHg 81%
    22:00 +19°C° 0 mm 0 m/s 735 mmHg 82%
    23:00 +19°C° 0 mm 0 m/s 735 mmHg 82%

    Mâine, 20 Iunie, Joi

    Timp Temperatura Precipitaţii Vânt Presiune Umiditate
    00:00 +20°C° 0 mm 1 m/s 735 mmHg 82%
    01:00 +20°C° 0 mm 1 m/s 735 mmHg 82%
    02:00 +20°C° 0 mm 1 m/s 735 mmHg 83%
    03:00 +20°C° 0 mm 1 m/s 735 mmHg 83%
    04:00 +19°C° 0 mm 1 m/s 735 mmHg 83%
    05:00 +21°C° 0 mm 1 m/s 735 mmHg 78%
    06:00 +23°C° 0 mm 1 m/s 735 mmHg 73%
    07:00 +23°C° 0 mm 0 m/s 735 mmHg 68%
    08:00 +26°C° 0 mm 1 m/s 735 mmHg 64%
    09:00 +27°C° 0 mm 1 m/s 735 mmHg 59%
    10:00 +28°C° 0 mm 2 m/s 735 mmHg 55%
    11:00 +28°C° 0.2 mm 2 m/s 735 mmHg 55%
    12:00 +29°C° 0.2 mm 2 m/s 735 mmHg 55%
    13:00 +29°C° 0.2 mm 3 m/s 735 mmHg 56%
    14:00 +28°C° 0.2 mm 3 m/s 735 mmHg 58%
    15:00 +28°C° 0.2 mm 3 m/s 735 mmHg 59%
    16:00 +27°C° 0.2 mm 2 m/s 735 mmHg 61%
    17:00 +26°C° 0.1 mm 2 m/s 735 mmHg 68%
    18:00 +24°C° 0.1 mm 1 m/s 735 mmHg 74%
    19:00 +21°C° 0.1 mm 0 m/s 735 mmHg 81%
    20:00 +20°C° 0 mm 0 m/s 735 mmHg 82%
    21:00 +20°C° 0 mm 0 m/s 735 mmHg 82%
    22:00 +21°C° 0 mm 1 m/s 736 mmHg 83%
    23:00 +19°C° 0 mm 0 m/s 736 mmHg 83%

    Poimâine, 21 Iunie, Vineri

    Timp Temperatura Precipitaţii Vânt Presiune Umiditate
    00:00 +19°C° 0 mm 0 m/s 736 mmHg 83%
    01:00 +18°C° 0 mm 0 m/s 736 mmHg 83%
    02:00 +18°C° 0 mm 0 m/s 736 mmHg 83%
    03:00 +20°C° 0 mm 1 m/s 736 mmHg 83%
    04:00 +20°C° 0 mm 1 m/s 736 mmHg 84%
    05:00 +22°C° 0 mm 1 m/s 736 mmHg 78%
    06:00 +23°C° 0 mm 1 m/s 736 mmHg 73%
    07:00 +23°C° 0 mm 0 m/s 736 mmHg 68%
    08:00 +27°C° 0 mm 1 m/s 736 mmHg 64%
    09:00 +28°C° 0 mm 1 m/s 737 mmHg 60%
    10:00 +30°C° 0 mm 1 m/s 737 mmHg 55%
    11:00 +30°C° 0 mm 2 m/s 737 mmHg 55%
    12:00 +30°C° 0 mm 2 m/s 736 mmHg 55%
    13:00 +30°C° 0 mm 3 m/s 736 mmHg 56%
    14:00 +30°C° 0.1 mm 2 m/s 736 mmHg 57%
    15:00 +29°C° 0.1 mm 2 m/s 736 mmHg 59%
    16:00 +29°C° 0.1 mm 2 m/s 736 mmHg 61%
    17:00 +27°C° 0 mm 1 m/s 736 mmHg 67%
    18:00 +26°C° 0 mm 1 m/s 736 mmHg 74%
    19:00 +24°C° 0 mm 1 m/s 736 mmHg 81%
    20:00 +23°C° 0 mm 1 m/s 736 mmHg 83%
    21:00 +23°C° 0 mm 1 m/s 737 mmHg 84%
    22:00 +22°C° 0 mm 1 m/s 737 mmHg 86%
    23:00 +22°C° 0 mm 1 m/s 737 mmHg 86%

    22 Iunie, Sâmbătă

    Timp Temperatura Precipitaţii Vânt Presiune Umiditate
    00:00 +22°C° 0 mm 1 m/s 737 mmHg 86%
    01:00 +21°C° 0 mm 1 m/s 737 mmHg 86%
    02:00 +21°C° 0 mm 1 m/s 737 mmHg 85%
    03:00 +21°C° 0 mm 1 m/s 737 mmHg 85%
    04:00 +21°C° 0 mm 1 m/s 736 mmHg 84%
    05:00 +23°C° 0 mm 1 m/s 737 mmHg 78%
    06:00 +25°C° 0 mm 1 m/s 737 mmHg 72%
    07:00 +25°C° 0 mm 0 m/s 737 mmHg 65%
    08:00 +28°C° 0 mm 1 m/s 737 mmHg 60%
    09:00 +30°C° 0 mm 1 m/s 737 mmHg 55%
    10:00 +31°C° 0 mm 1 m/s 738 mmHg 49%
    11:00 +32°C° 0 mm 1 m/s 737 mmHg 46%
    12:00 +34°C° 0 mm 2 m/s 737 mmHg 43%
    13:00 +34°C° 0 mm 2 m/s 737 mmHg 40%
    14:00 +34°C° 0 mm 2 m/s 737 mmHg 43%
    15:00 +32°C° 0 mm 2 m/s 736 mmHg 46%
    16:00 +33°C° 0 mm 3 m/s 736 mmHg 48%
    17:00 +30°C° 0 mm 2 m/s 736 mmHg 56%
    18:00 +28°C° 0 mm 1 m/s 736 mmHg 63%
    19:00 +26°C° 0 mm 1 m/s 736 mmHg 70%
    20:00 +25°C° 0 mm 1 m/s 736 mmHg 70%
    21:00 +25°C° 0 mm 1 m/s 737 mmHg 69%
    22:00 +24°C° 0 mm 1 m/s 737 mmHg 68%
    23:00 +24°C° 0 mm 1 m/s 737 mmHg 67%

    23 Iunie, Duminică

    Timp Temperatura Precipitaţii Vânt Presiune Umiditate
    00:00 +24°C° 0 mm 1 m/s 737 mmHg 65%
    01:00 +23°C° 0 mm 1 m/s 737 mmHg 63%
    02:00 +23°C° 0 mm 1 m/s 736 mmHg 63%
    03:00 +23°C° 0 mm 1 m/s 736 mmHg 62%
    04:00 +23°C° 0 mm 1 m/s 736 mmHg 61%
    05:00 +25°C° 0 mm 1 m/s 736 mmHg 57%
    06:00 +27°C° 0 mm 1 m/s 737 mmHg 53%
    07:00 +26°C° 0 mm 0 m/s 737 mmHg 49%
    08:00 +30°C° 0 mm 1 m/s 737 mmHg 46%
    09:00 +31°C° 0 mm 1 m/s 737 mmHg 43%
    10:00 +32°C° 0 mm 1 m/s 737 mmHg 39%
    11:00 +32°C° 0 mm 2 m/s 737 mmHg 39%
    12:00 +32°C° 0 mm 2 m/s 737 mmHg 40%
    13:00 +34°C° 0 mm 2 m/s 737 mmHg 40%
    14:00 +32°C° 0 mm 2 m/s 737 mmHg 42%
    15:00 +32°C° 0 mm 2 m/s 737 mmHg 44%
    16:00 +32°C° 0 mm 2 m/s 737 mmHg 46%
    17:00 +30°C° 0 mm 1 m/s 737 mmHg 55%
    18:00 +28°C° 0 mm 1 m/s 737 mmHg 64%
    19:00 +23°C° 0 mm 0 m/s 737 mmHg 73%
    20:00 +23°C° 0 mm 0 m/s 738 mmHg 74%
    21:00 +24°C° 0 mm 1 m/s 738 mmHg 74%
    22:00 +24°C° 0 mm 1 m/s 738 mmHg 75%
    23:00 +23°C° 0 mm 1 m/s 738 mmHg 74%

    24 Iunie, Luni

    Timp Temperatura Precipitaţii Vânt Presiune Umiditate
    00:00 +23°C° 0 mm 1 m/s 739 mmHg 73%
    01:00 +23°C° 0 mm 1 m/s 739 mmHg 72%
    02:00 +23°C° 0 mm 1 m/s 739 mmHg 74%
    03:00 +22°C° 0 mm 1 m/s 739 mmHg 75%
    04:00 +22°C° 0 mm 1 m/s 739 mmHg 77%
    05:00 +24°C° 0 mm 1 m/s 739 mmHg 73%
    06:00 +26°C° 0 mm 1 m/s 739 mmHg 68%
    07:00 +27°C° 0 mm 2 m/s 739 mmHg 64%
    08:00 +29°C° 0 mm 2 m/s 739 mmHg 59%
    09:00 +30°C° 0 mm 2 m/s 739 mmHg 53%
    10:00 +32°C° 0 mm 2 m/s 739 mmHg 48%
    11:00 +33°C° 0 mm 3 m/s 739 mmHg 46%
    12:00 +34°C° 0 mm 3 m/s 739 mmHg 45%
    13:00 +35°C° 0 mm 4 m/s 739 mmHg 44%
    14:00 +34°C° 0 mm 4 m/s 739 mmHg 45%
    15:00 +34°C° 0 mm 4 m/s 739 mmHg 46%
    16:00 +34°C° 0 mm 4 m/s 739 mmHg 47%
    17:00 +32°C° 0 mm 4 m/s 739 mmHg 54%
    18:00 +29°C° 0 mm 4 m/s 739 mmHg 61%
    19:00 +27°C° 0 mm 3 m/s 739 mmHg 68%
    20:00 +26°C° 0 mm 3 m/s 739 mmHg 69%
    21:00 +25°C° 0 mm 3 m/s 740 mmHg 70%
    22:00 +24°C° 0 mm 3 m/s 740 mmHg 71%
    23:00 +22°C° 0 mm 4 m/s 740 mmHg 72%
    Arată mai mult